Temperature
15 15 15 15 15 15 15 15 15 15 15 15 15 15 15 15 15 15 15 15 15 15 15 15 15 15 15 15 15 15 15 15 15 15 14 14 14 14 14 14 14 14 14
15 15 15 15 15 15 15 15 15 15 15 15 15 15 15 15 15 15 15 15 15 15 15 15 15 14 14 15 15 15 14 15 14 14 14 14 14 14 14 14 14 14 14
14 14 15 15 15 14 14 14 15 15 15 15 15 15 15 14 14 14 14 14 14 14 14 14 14 14 14 14 14 14 14 14 14 14 14 14 13 14 14 14 14 14 14
14 14 14 14 14 14 14 14 14 14 14 14 14 14 14 14 14 14 14 14 14 14 14 14 14 14 14 14 14 14 14 14 13 13 13 13 13 13 13 14 14 14 14
13 14 14 14 14 14 14 14 14 14 14 14 14 14 14 14 14 14 14 14 14 14 14 14 14 14 14 14 14 14 13 13 13 13 13 13 13 13 13 13 13 13 14
13 13 13 13 14 14 14 14 14 14 14 14 14 14 14 14 14 14 14 14 14 14 14 14 14 14 14 14 14 13 13 13 13 13 13 13 13 13 13 13 13 13 13
13 13 13 13 13 13 14 13 13 13 14 13 13 14 14 14 14 14 14 14 13 13 13 13 13 14 14 14 13 13 13 13 13 13 13 13 13 13 13 13 13 13 13
13 13 13 13 13 13 13 13 13 13 13 13 13 13 13 14 14 14 14 13 13 13 13 13 13 13 13 13 13 13 13 13 12 12 12 12 12 13 13 13 13 13 13
12 12 12 12 13 13 13 13 13 13 13 13 13 13 13 13 13 13 13 13 13 13 13 13 13 13 13 13 13 13 13 12 12 12 12 12 12 12 12 13 13 12 12
12 12 12 12 12 12 12 12 12 13 13 13 13 13 13 13 13 13 13 13 13 13 13 13 13 13 13 13 13 12 12 12 12 12 12 12 12 12 12 12 12 12 12
12 12 12 12 12 12 12 12 12 12 12 13 13 13 13 13 13 13 12 12 12 13 13 13 13 13 13 12 12 12 12 12 12 12 12 12 12 12 12 12 12 11 11
11 11 11 11 11 12 12 12 12 12 12 12 12 12 12 12 12 12 12 12 12 12 12 12 12 12 12 12 12 12 12 12 12 12 12 12 11 11 11 11 11 11 11
11 11 11 11 11 11 11 11 12 12 12 12 12 12 12 12 12 12 11 11 11 11 12 12 12 12 12 12 12 12 11 11 11 11 11 11 11 11 11 11 11 11 11
10 10 10 10 11 11 11 11 11 11 11 11 11 11 11 11 11 11 11 11 11 11 11 11 11 11 11 11 11 11 11 11 11 11 11 11 11 11 11 11 11 10 10
10 10 10 10 10 10 10 11 11 11 11 11 11 11 11 11 11 11 11 11 10 10 11 11 11 11 11 11 11 11 11 11 11 11 11 11 11 11 10 10 10 10 10
9 9 10 10 10 10 10 10 10 10 11 11 11 10 10 10 10 10 10 10 10 10 10 10 10 10 10 10 10 10 10 10 10 10 10 10 10 10 10 10 10 9 9
9 9 9 9 9 9 9 10 10 10 10 10 10 10 10 10 10 10 10 10 10 10 10 10 10 9 10 10 10 10 10 10 10 10 10 10 10 10 10 10 9 9 9
9 9 9 9 9 9 9 9 9 9 9 9 9 9 9 9 9 9 9 9 9 9 9 9 9 9 9 9 9 9 9 9 9 9 9 9 9 9 9 9 9 9 9
8 8 8 8 8 8 9 9 9 8 9 9 9 9 9 9 9 9 9 9 9 9 8 8 8 8 8 8 8 9 9 8 9 8 8 8 8 9 9 9 9 9 9
8 8 8 8 8 8 8 8 8 8 8 8 8 8 8 8 8 8 8 8 8 8 8 8 8 8 8 8 8 8 8 8 8 8 8 8 8 8 8 8 8 8 8
7 8 7 7 8 8 8 8 8 8 8 8 8 8 7 7 7 7 7 7 7 7 7 7 7 7 7 7 7 7 7 7 8 8 7 7 8 8 8 7 8 8 8
7 7 7 7 7 7 7 7 7 7 7 7 7 7 7 7 7 7 7 7 7 6 6 6 6 6 6 6 6 6 6 6 7 7 7 7 7 7 7 7 7 7 7
6 7 7 7 7 7 7 7 7 6 6 6 6 6 6 6 6 6 6 6 6 6 6 6 5 5 5 5 5 5 5 5 6 6 6 6 6 6 6 6 6 6 6
6 6 6 6 6 6 6 6 6 6 6 6 6 6 6 6 6 6 6 6 5 5 5 5 5 5 4 4 4 4 4 4 4 4 5 6 5 5 6 6 6 6 6
5 5 5 5 5 5 5 5 5 5 5 5 5 5 5 5 5 5 5 5 5 5 5 5 4 4 4 4 4 4 4 4 4 3 4 4 5 5 5 5 5 5 5
4 4 4 4 5 5 5 5 5 5 4 4 5 4 4 4 4 4 4 4 4 4 4 4 4 4 4 3 3 3 3 3 3 3 3 3 4 4 4 4 4 4 5
Wind_Speed
6 8 9 9 9 9 9 10 11 11 11 11 11 10 11 11 11 11 11 11 10 10 10 10 10 11 11 11 12 12 12 12 12 12 12 12 12 12 12 12 11 11 12
7 9 10 9 10 10 10 11 11 11 11 11 11 11 11 11 11 11 11 11 11 10 10 10 10 11 11 11 11 11 11 11 10 10 11 10 11 12 11 12 11 10 11
7 10 9 10 10 10 11 11 11 11 11 11 11 11 11 11 11 11 11 10 10 10 10 10 10 10 10 10 10 10 10 9 8 8 7 7 9 11 11 11 11 11 10
8 9 9 10 10 11 11 11 11 11 11 11 11 11 11 11 11 10 10 10 10 10 9 10 10 9 9 9 9 9 8 7 6 5 5 6 7 9 9 9 9 10 10
8 10 11 11 11 11 12 12 11 11 11 10 11 11 11 10 10 10 9 9 9 9 9 9 9 9 8 8 8 7 6 5 5 5 5 7 8 8 8 8 8 8 8
8 12 11 12 12 12 12 12 12 11 11 11 11 10 10 10 10 10 9 9 9 9 9 9 9 8 8 7 6 6 5 5 5 4 5 7 8 8 7 7 7 7 7
8 11 12 12 12 12 12 11 11 11 11 10 10 10 10 10 10 9 9 9 8 8 8 8 8 7 7 7 6 5 5 4 4 4 5 7 8 7 6 6 6 6 6
8 10 11 12 12 12 12 11 11 11 11 10 10 9 9 9 9 9 9 8 8 7 7 7 7 7 6 5 5 5 4 4 4 4 5 7 7 7 6 6 5 5 5
9 9 9 10 10 11 11 11 11 11 11 10 10 9 9 8 8 8 8 7 7 7 6 5 5 5 5 5 5 4 4 4 5 3 3 5 6 5 5 4 4 4 4
7 7 7 8 9 9 10 10 10 10 10 9 9 8 7 7 7 7 6 6 6 6 5 5 4 4 4 4 3 4 4 4 4 2 2 4 5 4 3 3 3 3 3
6 6 6 6 7 8 8 8 8 8 8 8 7 6 5 5 6 6 5 5 4 4 4 3 3 3 3 3 3 3 3 3 3 3 3 4 4 3 2 2 1 2 2
5 5 4 5 6 7 6 6 6 6 6 6 6 5 5 5 6 6 5 4 3 2 2 2 2 2 2 2 2 3 2 2 2 2 3 4 2 1 1 1 1 1 1
5 5 4 5 6 6 5 5 5 5 5 6 6 6 5 5 5 5 4 3 2 2 2 3 2 2 2 2 2 2 2 2 2 2 2 2 1 0 1 2 2 2 3
5 4 4 4 5 5 5 4 4 4 4 5 5 6 5 4 4 4 4 4 3 3 3 3 2 2 2 2 2 1 2 2 2 1 1 1 1 2 2 3 3 4 4
4 4 4 4 4 4 4 4 4 4 4 5 5 6 6 4 3 3 3 4 4 4 3 3 3 2 2 3 2 2 1 1 2 2 1 1 2 3 3 4 4 4 5
4 4 3 4 4 4 3 3 3 4 5 5 5 5 6 5 4 3 3 3 4 5 4 3 3 3 2 2 2 2 2 2 2 2 2 3 4 4 5 5 5 5 6
4 4 3 3 4 4 3 3 4 4 5 4 4 5 6 6 5 4 2 2 3 5 5 4 3 3 2 2 3 3 3 3 2 3 3 3 3 4 5 5 6 6 7
4 4 3 3 3 3 3 3 3 3 4 4 4 4 5 5 5 4 3 2 4 4 4 3 2 2 2 3 3 3 2 3 3 3 2 2 2 3 4 6 6 7 7
4 4 4 4 3 2 3 3 3 3 4 4 4 4 4 4 5 4 3 3 4 3 3 3 2 2 2 2 3 3 3 3 3 3 2 2 2 2 2 4 6 7 7
4 5 4 4 3 2 2 2 2 2 2 3 3 3 3 3 4 4 3 3 4 2 2 2 2 2 2 2 4 4 3 4 3 3 3 2 2 3 3 4 4 6 7
4 4 4 3 2 2 2 1 1 1 0 1 2 1 2 3 3 3 3 2 2 2 2 2 2 2 2 2 2 3 4 4 3 3 2 2 2 3 4 4 3 4 5
4 4 3 3 2 2 1 1 1 1 1 1 1 1 1 1 2 2 2 1 2 2 2 3 2 2 2 2 1 2 3 3 2 3 3 3 3 2 3 4 4 4 5
4 3 2 2 2 1 1 1 1 1 0 0 0 0 1 1 1 2 2 2 2 1 1 2 2 2 3 3 1 1 1 3 3 3 3 3 2 2 3 3 4 5 6
3 3 2 1 1 1 1 1 2 1 1 1 1 1 1 1 1 2 2 2 2 2 2 2 2 2 3 3 3 3 3 2 2 3 3 3 3 3 4 4 4 4 5
3 2 2 1 1 1 1 1 2 2 2 1 1 2 2 2 1 2 2 2 2 2 2 3 3 3 3 4 4 3 4 4 4 4 5 4 4 3 3 3 3 4 5
3 2 2 1 1 1 1 2 2 3 2 2 2 2 2 2 2 2 2 2 2 2 3 3 3 4 4 4 4 4 4 3 3 4 5 5 5 4 4 3 3 3 5
Wind_Direction
99 106 108 99 94 93 92 89 87 84 81 81 81 80 78 76 78 81 80 76 73 72 72 70 70 70 71 70 70 69 69 69 71 73 74 76 77 76 72 69 68 68 73
108 111 111 103 98 94 94 91 88 86 84 80 78 79 77 74 77 77 77 73 71 72 72 69 67 69 71 71 72 73 72 70 71 74 75 75 78 78 72 65 63 69 71
99 110 111 105 104 100 95 92 90 87 85 82 78 78 76 73 76 74 73 71 68 69 70 67 68 69 69 71 73 75 73 69 70 72 74 78 81 81 76 69 69 70 71
96 107 109 106 104 101 98 94 91 88 84 81 78 77 75 73 73 73 71 70 68 67 67 67 64 66 67 70 71 73 69 61 58 55 62 75 83 85 80 75 73 73 73
91 98 104 105 102 99 96 93 89 85 82 79 76 75 73 72 71 72 69 69 69 68 69 68 65 64 65 67 67 66 62 49 38 38 55 70 82 89 86 84 82 79 76
90 94 101 102 100 98 94 91 88 84 81 77 74 72 71 69 68 69 68 67 67 67 70 67 64 64 62 63 61 56 49 36 24 34 56 73 83 86 85 89 89 84 79
91 93 98 96 94 92 91 89 88 84 79 75 73 72 70 68 66 66 66 66 64 65 66 65 63 61 62 58 53 44 35 31 23 35 58 74 83 85 81 84 90 86 83
87 89 93 94 91 90 89 88 86 83 79 75 72 69 67 67 67 66 65 63 61 64 65 63 60 56 56 53 44 32 25 18 15 36 58 81 86 87 77 83 86 85 83
82 86 87 90 90 89 87 87 85 82 79 76 71 67 64 65 65 66 63 61 58 58 59 58 55 54 51 45 37 26 11 360 343 9 51 85 95 88 76 79 85 83 86
76 78 82 86 90 91 88 87 86 83 79 76 71 66 65 63 62 61 57 59 57 56 53 52 50 49 45 33 25 8 357 338 327 352 51 89 103 94 76 66 77 75 74
76 69 70 77 81 86 89 87 86 82 77 74 67 60 55 56 59 59 56 62 57 53 49 44 36 41 31 18 2 346 341 328 343 16 61 90 105 106 83 47 51 56 51
93 82 70 69 72 77 85 87 84 80 76 67 60 53 47 48 49 49 53 64 54 42 33 15 357 10 3 356 339 327 333 344 344 29 76 98 91 93 100 342 323 304 309
107 90 79 70 71 74 73 81 73 71 70 62 49 41 47 50 50 45 46 43 25 21 3 345 334 338 348 343 356 348 327 331 340 14 63 121 123 200 279 279 283 276 280
107 101 93 77 71 72 77 79 79 73 67 62 48 38 37 39 40 36 38 28 22 14 359 347 340 324 343 334 339 330 318 322 334 354 9 177 195 231 264 276 284 277 276
109 104 99 93 83 74 69 71 73 71 70 65 53 40 35 41 36 30 27 22 14 8 358 348 343 346 355 333 317 322 322 299 294 305 290 234 221 231 251 266 276 283 280
113 105 96 99 89 83 77 70 71 74 72 68 58 46 34 30 29 30 25 23 16 359 347 347 347 342 344 333 321 317 306 296 276 276 261 250 239 240 248 258 268 279 278
122 113 105 109 90 88 86 79 77 73 77 70 62 55 43 31 20 22 24 30 10 354 352 345 350 358 340 329 313 315 320 309 287 270 254 244 248 246 249 259 268 279 281
130 124 116 105 96 96 90 84 76 71 71 69 62 56 47 33 19 21 23 16 0 357 359 348 345 343 333 328 318 305 301 297 287 273 262 248 241 257 260 266 271 277 286
133 129 125 113 109 102 96 100 89 80 71 67 63 51 41 30 17 21 19 9 356 358 1 340 343 330 313 315 305 291 278 271 269 271 267 249 233 229 259 269 268 270 282
127 126 121 116 114 108 101 104 94 80 68 65 63 46 31 25 16 14 14 4 358 357 346 337 323 321 302 307 306 297 276 264 249 242 245 253 241 240 255 265 265 269 275
112 111 122 125 123 118 120 126 123 127 92 65 61 39 28 19 6 12 3 355 352 337 323 323 314 320 310 315 310 308 286 266 248 244 235 238 248 250 261 267 269 271 276
127 118 120 125 131 126 124 133 159 175 194 189 66 55 13 352 349 352 357 330 328 324 331 328 326 314 308 319 303 304 312 310 295 256 248 250 249 261 262 268 270 276 281
129 129 133 141 143 135 129 133 132 70 26 70 290 263 294 284 317 337 322 317 309 299 290 294 304 297 288 298 293 258 275 277 309 289 266 261 270 273 275 278 270 271 273
126 116 116 124 133 150 154 175 182 191 218 244 248 254 271 256 266 299 299 305 300 288 277 281 289 276 266 271 282 261 249 251 267 296 295 288 288 279 273 281 280 281 280
120 125 132 135 149 155 188 202 208 214 228 235 250 248 258 262 247 262 268 278 277 274 267 271 280 277 264 258 261 272 269 267 249 249 276 289 293 281 277 278 284 285 284
117 123 130 146 172 188 231 226 223 217 225 232 250 254 261 256 256 258 267 270 268 269 264 267 268 273 270 269 265 263 256 252 256 254 266 279 283 282 286 277 269 279 278
Height
1510 1510 1511 1512 1513 1514 1515 1516 1517 1518 1519 1520 1521 1521 1522 1523 1523 1524 1525 1525 1525 1526 1526 1527 1527 1527 1527 1528 1528 1528 1528 1528 1529 1529 1529 1529 1529 1529 1529 1529 1529 1529 1530
1509 1510 1511 1512 1514 1515 1516 1517 1518 1519 1520 1521 1521 1522 1523 1524 1524 1525 1525 1526 1526 1527 1527 1528 1528 1528 1528 1529 1529 1529 1529 1530 1530 1530 1530 1530 1530 1530 1531 1531 1531 1531 1531
1509 1510 1511 1513 1514 1515 1516 1518 1519 1520 1521 1521 1522 1523 1523 1524 1525 1525 1526 1527 1527 1527 1528 1528 1529 1529 1529 1530 1530 1530 1530 1531 1531 1531 1531 1531 1531 1532 1532 1532 1532 1532 1532
1509 1510 1511 1513 1514 1516 1517 1518 1519 1520 1521 1522 1523 1523 1524 1525 1525 1526 1527 1527 1528 1528 1528 1529 1529 1530 1530 1530 1531 1531 1531 1532 1532 1532 1532 1532 1532 1532 1532 1532 1532 1532 1532
1509 1510 1512 1513 1514 1516 1517 1518 1519 1520 1521 1522 1523 1524 1525 1525 1526 1526 1527 1527 1528 1528 1529 1529 1530 1530 1530 1531 1531 1532 1532 1532 1532 1533 1533 1533 1533 1533 1533 1533 1533 1533 1533
1510 1511 1512 1514 1515 1516 1518 1519 1520 1521 1522 1523 1523 1524 1525 1526 1526 1527 1527 1528 1528 1529 1529 1529 1530 1530 1531 1531 1532 1532 1532 1532 1533 1533 1534 1534 1533 1533 1533 1533 1533 1533 1533
1510 1511 1513 1514 1515 1516 1517 1519 1520 1521 1522 1523 1524 1524 1525 1526 1526 1527 1527 1528 1528 1528 1529 1529 1530 1530 1531 1531 1532 1532 1532 1532 1533 1533 1534 1534 1533 1533 1533 1533 1533 1533 1533
1510 1511 1513 1514 1515 1516 1518 1519 1520 1521 1522 1523 1524 1524 1525 1526 1526 1526 1527 1527 1528 1528 1528 1529 1529 1530 1530 1531 1531 1532 1532 1532 1533 1533 1533 1533 1533 1533 1533 1533 1533 1533 1533
1510 1511 1512 1514 1515 1516 1518 1519 1520 1521 1522 1523 1524 1524 1525 1525 1526 1526 1526 1527 1527 1528 1528 1528 1529 1529 1530 1530 1531 1531 1531 1532 1532 1532 1532 1532 1533 1533 1533 1532 1532 1532 1532
1510 1511 1512 1514 1515 1516 1517 1519 1520 1521 1522 1522 1523 1524 1524 1525 1525 1525 1526 1526 1526 1527 1527 1528 1528 1528 1529 1529 1530 1530 1530 1531 1531 1531 1531 1532 1532 1532 1532 1532 1531 1531 1531
1510 1511 1512 1513 1514 1515 1516 1518 1519 1520 1521 1522 1522 1523 1524 1524 1524 1524 1525 1525 1525 1526 1526 1526 1527 1527 1528 1528 1528 1529 1529 1529 1530 1530 1530 1530 1530 1530 1530 1530 1530 1530 1530
1509 1510 1511 1512 1514 1515 1516 1517 1518 1519 1520 1520 1521 1522 1522 1523 1523 1523 1524 1524 1524 1524 1525 1525 1525 1526 1526 1526 1527 1527 1527 1528 1528 1528 1528 1529 1529 1529 1529 1529 1529 1529 1529
1508 1509 1511 1512 1513 1514 1515 1516 1517 1518 1519 1519 1520 1520 1521 1521 1521 1522 1522 1522 1523 1523 1523 1523 1524 1524 1524 1525 1525 1525 1526 1526 1526 1526 1526 1526 1527 1527 1527 1527 1527 1527 1527
1507 1508 1509 1510 1512 1513 1513 1515 1516 1516 1517 1518 1519 1519 1519 1520 1520 1520 1520 1521 1521 1521 1521 1522 1522 1522 1522 1523 1523 1523 1523 1524 1524 1524 1524 1524 1524 1524 1525 1525 1525 1525 1525
1506 1507 1508 1509 1510 1511 1512 1513 1514 1515 1516 1516 1517 1518 1518 1518 1518 1518 1519 1519 1519 1519 1519 1520 1520 1520 1520 1520 1521 1521 1521 1521 1521 1521 1521 1522 1522 1522 1522 1522 1522 1522 1522
1504 1505 1507 1508 1509 1510 1511 1512 1513 1514 1514 1515 1515 1516 1516 1516 1516 1516 1517 1517 1517 1517 1517 1518 1518 1518 1518 1518 1518 1518 1518 1518 1518 1518 1518 1518 1519 1519 1519 1519 1519 1519 1519
1503 1504 1505 1506 1508 1509 1510 1510 1511 1512 1512 1513 1513 1514 1514 1514 1515 1515 1515 1515 1515 1515 1515 1515 1515 1515 1515 1515 1515 1515 1515 1515 1515 1515 1515 1515 1515 1515 1516 1516 1516 1516 1516
1501 1502 1504 1505 1506 1507 1508 1509 1509 1510 1511 1511 1511 1512 1512 1512 1513 1512 1512 1512 1512 1512 1512 1512 1512 1512 1512 1512 1512 1512 1512 1512 1512 1512 1512 1512 1512 1512 1512 1512 1512 1512 1512
1499 1500 1501 1503 1504 1505 1506 1507 1508 1508 1509 1509 1510 1510 1510 1510 1510 1510 1510 1510 1510 1510 1510 1510 1510 1509 1509 1509 1509 1508 1508 1508 1508 1508 1508 1508 1508 1508 1508 1508 1508 1508 1508
1497 1498 1499 1501 1502 1503 1504 1505 1505 1506 1507 1507 1507 1508 1508 1508 1508 1508 1508 1508 1508 1507 1507 1507 1507 1507 1506 1506 1506 1505 1505 1505 1505 1505 1505 1505 1505 1505 1505 1504 1504 1504 1504
1495 1496 1497 1498 1500 1501 1502 1502 1503 1503 1504 1505 1505 1505 1506 1506 1506 1505 1505 1505 1505 1505 1505 1505 1504 1504 1504 1504 1503 1502 1501 1501 1501 1501 1501 1501 1501 1501 1501 1500 1500 1500 1499
1493 1494 1495 1496 1498 1499 1499 1500 1500 1501 1502 1502 1502 1503 1503 1503 1503 1503 1503 1502 1502 1502 1502 1502 1502 1501 1501 1501 1501 1499 1498 1499 1498 1498 1497 1497 1497 1497 1497 1496 1496 1496 1495
1490 1491 1493 1494 1495 1496 1497 1498 1498 1498 1499 1499 1499 1500 1500 1500 1500 1500 1500 1500 1499 1499 1499 1499 1499 1499 1498 1499 1499 1499 1498 1496 1495 1494 1494 1494 1493 1493 1492 1492 1492 1491 1491
1489 1490 1491 1492 1493 1493 1494 1494 1495 1495 1495 1496 1496 1496 1497 1497 1497 1497 1497 1497 1496 1496 1496 1496 1496 1495 1495 1495 1496 1496 1496 1495 1494 1490 1490 1490 1490 1489 1489 1488 1487 1487 1487
1487 1488 1489 1489 1490 1491 1491 1492 1492 1492 1492 1493 1493 1493 1493 1493 1493 1493 1493 1493 1492 1492 1492 1492 1492 1492 1492 1491 1491 1492 1492 1491 1491 1489 1486 1485 1485 1485 1484 1484 1483 1483 1482
1485 1485 1486 1487 1488 1488 1488 1489 1489 1489 1489 1489 1489 1489 1489 1489 1489 1489 1489 1489 1489 1488 1488 1488 1487 1487 1487 1487 1487 1487 1487 1487 1486 1485 1483 1481 1480 1480 1480 1479 1479 1478 1478